Location: Armentières
(48.9777°N, 3.0207°E)
Time: 15:20:42
(UTC+00:00)

Daily predictions for brighter satellites

Satellite Brightness Start Highest point End
(mag) Time Altitude Azimuth Time Altitude Azimuth Time Altitude Azimuth
CZ-4C R/B 3.4 20:30:04 10° NNE 20:34:14 80° ESE 20:38:21 10° S
Cosmos 1980 Rocket 4.0 20:29:49 10° NW 20:34:29 27° WSW 20:39:07 10° SSW
ATLAS 2AS CENTAUR R/B 3.1 20:30:01 10° NW 20:36:51 60° NE 20:43:25 10° ESE
Cosmos 2322 Rocket 2.5 20:31:16 10° NNW 20:36:54 61° ENE 20:42:32 10° SE
Meteor 1-22 Rocket 4.4 20:32:16 10° N 20:37:54 70° ENE 20:43:45 10° SSE
BREEZE-M DEB (TANK) 3.5 20:36:31 10° SW 20:39:59 53° SE 20:51:15 10° ENE
COSMOS 2406 4.0 20:35:53 10° SW 20:41:33 59° WNW 20:47:15 10° NNE
Meteor 2-10 Rocket 3.9 20:36:24 10° N 20:41:56 58° ENE 20:47:12 10° SSE
Cosmos 1674 4.2 20:39:49 10° SW 20:43:01 35° WNW 20:46:15 10° N
ARGOS Delta rocket 3.9 20:39:29 10° S 20:43:55 72° W 20:48:18 10° NNW
SL-4 R/B 2.5 20:45:02 10° W 20:48:47 58° N 20:52:49 10° ENE
Cosmos 1733 Rocket 3.8 20:44:37 10° N 20:48:47 40° ENE 20:52:58 10° SE
Cosmos 2278 4.2 20:43:59 10° NW 20:49:37 61° WSW 20:55:12 10° S
Cosmos 1300 2.9 20:50:32 10° N 20:54:00 48° ENE 20:57:21 11° SSE
S3M 4.1 20:47:53 10° N 20:54:18 88° ENE 21:00:37 10° S
Ariane Rocket 3.1 20:49:22 10° SSE 20:54:25 72° ENE 20:59:31 10° N
Timation 1 Rocket 4.4 20:50:25 10° SSW 20:56:17 63° ESE 21:02:11 10° NE
SL-27 R/B 3.0 20:54:28 10° SSE 20:56:50 25° ESE 20:59:13 10° NE
Okean-O 4.1 20:53:33 10° SSW 20:57:32 34° W 21:01:34 10° NNW
Cosmos 1441 Rocket 4.3 20:55:29 10° NNW 20:58:51 39° W 21:02:16 10° SSW
Cosmos 1400 Rocket 2.7 20:56:44 10° S 21:00:36 80° ESE 21:04:27 10° NNE
Meteor 1-13 Rocket 4.5 20:55:30 10° SSW 21:01:17 77° WNW 21:06:58 10° N
Cosmos 2219 Rocket 3.0 20:56:03 10° NNW 21:01:27 42° NE 21:06:50 10° ESE
COSMOS 2428 4.3 20:58:08 10° NNW 21:02:52 26° NE 21:07:34 10° E
Cosmos 1356 Rocket 3.7 21:00:01 10° S 21:04:03 49° E 21:08:07 10° NNE
BREEZE-M DEB (TANK) 1.7 21:02:02 10° W 21:04:03 60° SSW 21:06:53 10° ESE
Cosmos 2266 Rocket 4.1 20:59:23 10° S 21:05:44 90° WNW 21:12:12 10° N
USA 245 3.7 21:02:41 10° S 21:06:13 63° W 21:10:43 10° NNW
ATLAS CENTAUR R/B 1.2 21:03:19 10° SSW 21:06:39 45° ESE 21:10:06 10° NE
Cosmos 1850 Rocket 4.0 21:03:32 10° S 21:08:41 63° ESE 21:13:50 10° NNE
Cosmos 1655 Rocket 4.1 21:04:58 10° S 21:11:20 72° E 21:17:43 10° NNE
Cosmos 1869 Rocket 4.5 21:08:38 10° NNW 21:12:54 47° W 21:17:11 10° SSW
Meteor 1-4 Rocket 3.4 21:13:07 15° SE 21:14:45 24° E 21:17:14 10° NE
Cosmos 2228 Rocket 3.2 21:10:32 10° S 21:15:03 69° E 21:19:38 10° NNE
MOS 1 Rocket 3.7 21:10:38 10° S 21:16:02 80° WSW 21:21:20 10° NNW
Okean O Rocket 4.3 21:14:57 10° WSW 21:16:59 13° W 21:19:01 10° WNW
Cosmos 1953 3.5 21:14:54 10° NNE 21:18:14 27° ENE 21:20:51 14° SE
Cosmos 1315 Rocket 4.0 21:17:28 14° SE 21:20:01 27° E 21:23:24 10° NE
Cosmos 968 Rocket 3.6 21:17:08 10° S 21:22:09 57° ESE 21:27:15 10° NNE
SPOT 3 Rocket 3.7 21:18:16 10° S 21:23:22 73° WSW 21:28:34 10° NNW
SeaSat 1 3.2 21:19:03 10° S 21:23:45 46° WSW 21:28:29 10° NW
Spot 1 4.5 21:19:26 10° NNE 21:23:53 54° ESE 21:28:26 11° S
Cosmos 2360 Rocket 2.3 21:20:59 10° NNW 21:26:41 78° WSW 21:31:30 15° SSE
Cosmos 1741 Rocket 4.0 21:23:54 10° SSW 21:29:10 86° ESE 21:34:31 10° NNE
Cosmos 1242 Rocket 4.0 21:29:30 13° ESE 21:30:01 13° E 21:31:26 10° ENE
BlueWalker 3 3.4 21:31:50 17° SE 21:31:50 17° SE 21:34:12 10° E
MetOp-A 4.1 21:28:25 15° SSE 21:32:49 76° ENE 21:38:04 10° NNW
Cosmos 1814 Rocket 4.1 21:27:41 10° NNW 21:33:01 81° ENE 21:37:16 16° SSE
Landsat 4 4.3 21:30:19 12° S 21:33:23 44° W 21:36:42 10° NNW
COSMOS 2455 4.4 21:35:30 14° SE 21:37:47 17° ESE 21:41:25 10° ENE
SL-16 R/B 3.5 21:33:19 10° NW 21:38:21 34° WSW 21:43:21 10° SSW
Landsat 5 3.4 21:36:29 10° NNE 21:40:30 73° ESE 21:44:10 13° S
USA 234 3.2 21:34:21 10° ENE 21:40:56 86° SE 21:47:30 10° SW
Cosmos 2333 Rocket 2.5 21:36:53 10° NNW 21:42:35 66° WSW 21:47:09 16° SSE
SL-14 R/B 3.9 21:40:10 10° SSW 21:43:52 52° WNW 21:47:36 10° N
Cosmos 1703 Rocket 4.4 21:43:34 19° SSE 21:46:13 36° E 21:50:18 10° NNE
Cosmos 1862 Rocket 3.7 21:42:42 10° SSW 21:47:05 78° W 21:51:33 10° N
Cosmos 1346 Rocket 3.6 21:44:21 10° NNW 21:48:03 45° W 21:51:09 14° SSW
Okean 3 3.4 21:46:07 13° S 21:49:46 88° W 21:53:59 10° N
DNEPR-1 R/B 4.4 21:43:26 10° NW 21:50:18 86° SW 21:54:25 19° SE
Cosmos 1455 2.2 21:49:43 10° N 21:53:11 56° ENE 21:55:03 24° SSE
Cosmos 1408 4.3 21:55:12 13° E 21:55:38 13° E 21:57:04 10° ENE
Cosmos 1833 4.2 21:51:14 10° SSW 21:56:52 88° ESE 22:02:32 10° NNE
EXPRESS MD2 2.1 21:55:26 10° W 21:57:50 68° N 21:59:45 12° E
CZ-4C R/B 3.4 21:58:28 15° ESE 21:59:16 16° ESE 22:02:15 10° ENE
RESURS DK-1 4.3 21:56:46 10° WNW 21:59:45 20° WSW 22:02:41 10° SSW
H-2A R/B 3.8 21:58:41 16° ESE 22:01:24 31° ENE 22:05:10 10° N
Cosmos 2237 Rocket 3.7 21:56:53 10° NNW 22:01:45 28° NE 22:06:36 10° ESE
Cosmos 1932 4.4 21:57:09 10° SSW 22:03:27 73° SE 22:09:43 10° NE
SJ 16-02 1.4 22:00:27 10° SSW 22:04:46 79° WNW 22:09:07 10° NNE
Terra 3.7 22:01:45 10° SW 22:05:28 23° W 22:09:11 10° NW
Cosmos 2322 3.8 21:59:54 10° NNW 22:05:36 71° ENE 22:09:35 20° SE
CZ-2C R/B 3.9 22:02:42 10° NNE 22:07:00 49° E 22:09:29 23° SSE
Aureole 3 4.2 22:07:01 12° SSW 22:10:41 56° WNW 22:15:38 10° N
Cosmos 2322 Rocket 3.8 22:15:59 10° NW 22:20:32 25° WSW 22:24:47 11° SSW
ARIANE 5 R/B 2.5 22:23:17 27° SSE 22:25:39 90° NW 22:30:00 10° NNW
NOSS 5 (C) 4.2 22:23:34 10° NW 22:26:45 82° NE 22:27:59 34° SE
ATLAS 2AS CENTAUR R/B 3.5 22:21:20 10° NW 22:27:29 38° WSW 22:31:35 19° S
SL-4 R/B 2.1 22:23:51 10° WNW 22:27:48 77° NNE 22:31:56 11° ESE
Cosmos 2297 Rocket 3.4 22:27:17 20° SE 22:29:21 25° ESE 22:33:52 10° NE
Okean 1-7 3.7 22:30:05 15° SSW 22:33:28 51° WNW 22:37:41 10° N
USA 281 3.3 22:34:22 23° SSE 22:38:45 75° WSW 22:45:23 10° NNW
Cosmos 1745 Rocket 4.0 22:34:59 22° S 22:39:17 78° E 22:45:40 10° NNE
Cosmos 1908 Rocket 4.3 22:36:58 10° NNW 22:41:07 45° W 22:43:32 22° SSW
GP-B 3.3 22:36:55 10° N 22:41:20 68° W 22:43:51 25° SSW
Spot 4 3.9 22:41:21 27° SSE 22:43:56 71° ENE 22:48:45 10° N
Cosmos 1782 Rocket 3.5 22:39:45 10° NNW 22:44:06 79° W 22:46:09 30° S
ATLAS CENTAUR R/B 3.5 22:41:33 10° W 22:44:29 24° NW 22:47:31 10° NNE
Cosmos 2219 Rocket 3.1 22:40:09 10° NW 22:45:22 38° WSW 22:48:35 21° SSW
Nadezhda 1 Rocket 4.1 22:40:15 10° NNW 22:46:35 77° W 22:50:31 24° S
COSMOS 2428 2.7 22:41:59 10° NNW 22:47:41 73° WSW 22:50:54 27° SSE
NOSS 8 (F) 4.5 22:47:50 32° SSW 22:49:19 60° SE 22:52:27 10° NE
Meteor 2-5 Rocket 4.4 22:46:15 24° SSE 22:49:21 44° E 22:54:52 10° NNE
BREEZE-M DEB (TANK) 3.1 22:48:13 10° WNW 22:51:55 38° N 22:53:56 10° ENE
Cosmos 1953 3.9 22:50:47 10° NNW 22:53:58 25° W 22:55:58 17° SW
Cosmos 2098 Rocket 4.4 22:48:19 10° N 22:54:51 57° ENE 22:58:50 23° SSE
Cosmos 1315 Rocket 4.5 22:52:43 11° SW 22:56:05 29° WNW 22:59:36 10° N
H-2A R/B 3.7 22:54:49 10° NE 22:57:56 19° E 22:59:07 17° ESE
PSLV R/B 4.1 22:55:38 10° N 22:59:36 64° WNW 23:01:43 26° SSW
Cosmos 1300 Rocket 3.7 22:56:59 10° NNW 23:01:15 64° W 23:03:09 31° SSW
Cosmos 1242 Rocket 3.7 23:00:40 19° WSW 23:01:48 25° WNW 23:04:10 10° NNW
Cosmos 304 Rocket 4.0 23:03:17 32° SSE 23:05:12 52° ESE 23:09:50 10° NNE
Cosmos 158 Rocket 4.3 23:02:31 10° NNW 23:07:43 56° WSW 23:10:13 29° S
Cosmos 2151 Rocket 4.4 23:05:11 10° N 23:09:23 42° ENE 23:11:26 25° SE
BlueWalker 3 1.7 23:06:00 12° WSW 23:09:24 79° SSE 23:13:09 10° ENE
Cosmos 2360 Rocket 4.4 23:07:08 10° WNW 23:09:42 13° W 23:12:15 10° WSW
Cosmos 405 Rocket 3.1 23:07:06 10° N 23:10:47 52° ENE 23:12:07 34° SE
Okean 2 Rocket 3.8 23:11:39 10° N 23:15:58 45° ENE 23:18:04 26° SE
ALOS 2 2.6 23:14:27 34° S 23:16:18 81° WSW 23:20:43 10° NNW
Cosmos 546 4.5 23:15:59 10° WNW 23:19:51 77° SSW 23:22:00 25° ESE
Cosmos 1674 Rocket 4.3 23:20:04 29° SE 23:21:38 39° E 23:25:41 10° NNE
Cosmos 1378 Rocket 4.0 23:20:47 32° SE 23:22:21 47° E 23:26:34 10° NNE
COSMOS 2455 2.8 23:18:35 21° SSW 23:22:49 84° ESE 23:28:54 10° NE
USA 234 4.2 23:17:26 10° ENE 23:23:43 51° NNW 23:29:59 10° W
NOSS 0 Rocket 4.2 23:20:21 10° NW 23:26:27 57° WSW 23:29:40 28° S
CENTAUR R/B 3.4 23:24:42 24° SE 23:26:41 29° ESE 23:32:18 10° NE
Cosmos 1408 3.4 23:27:13 26° WSW 23:28:02 31° WNW 23:30:47 10° N
Cosmos 773 Rocket 4.0 23:24:33 10° NNW 23:29:40 66° WSW 23:32:01 32° S
Cosmos 1703 3.5 23:34:51 34° SW 23:36:09 55° WNW 23:39:47 10° N
H-2A R/B 3.7 23:34:40 24° SW 23:36:17 31° W 23:40:06 10° NNW
Cosmos 2221 Rocket 4.0 23:34:52 33° SSE 23:36:33 52° E 23:40:53 10° NNE
Cosmos 1892 2.9 23:37:30 40° SE 23:38:14 48° E 23:41:39 10° NNE
Cosmos 1709 Rocket 4.4 23:34:37 21° SSW 23:38:52 60° WNW 23:45:11 10° N
SL-16 R/B 3.2 23:34:03 10° NNW 23:39:31 44° NE 23:44:44 11° SE
Cosmos 1174 4.0 23:34:43 10° NW 23:39:48 89° NNE 23:41:41 33° SE
Sich 1 Rocket 3.5 23:37:11 10° N 23:41:36 80° E 23:43:22 36° SSE
SJ 16-02 4.1 23:42:03 10° WNW 23:43:53 12° NW 23:45:45 10° NNW
Cosmos 2237 Rocket 2.3 23:40:39 10° NNW 23:46:15 63° WSW 23:48:59 30° S
Cosmos 1777 Rocket 4.0 23:43:34 30° SSW 23:46:18 86° ESE 23:51:37 10° NNE
Cosmos 1503 Rocket 4.0 23:43:28 27° SSW 23:46:28 81° WNW 23:51:49 10° NNE
CZ-4C R/B 1.9 23:43:30 22° SW 23:46:30 83° NW 23:52:21 10° NE
BREEZE-M DEB (TANK) 2.8 23:39:12 10° W 23:48:34 85° SSW 23:51:35 10° ESE
Cosmos 2227 Rocket 2.4 23:50:16 30° S 23:52:55 57° ESE 23:58:28 10° NE
GEOS 3 Rocket 4.1 23:50:03 10° NE 23:54:57 42° ESE 23:56:49 30° S
